星链-5034 (STARLINK-5034 )

导读

STARLINK-5034是美国太空探索技术公司星链星座的成员,于2022年9月24日发射升空,属于星链网络第二次大规模组网阶段的卫星。它依托一箭多星发射方式入轨,通过星链低轨星座架构,为全球提供高速低延迟互联网服务,目前已在轨正常运行近四年,支撑起星链全球通信覆盖能力。

基本信息
目录编号:
53888
目录名称:
STARLINK-5034
国际标识:
2022-119C
轨道中心:
EARTH
卫星名称:
星链-5034
卫星全名:
星链-5034 (STARLINK-5034 )
卫星状态:
已陨落 最后检测时间 2026-07-02
发射日期:
2022-09-24 UTC
国别 :
美国 (US)
星等 :
--
该卫星已列入 空间交会检测服务 Space Conjunction Data Service (SCDS) ,当前飞行风险评估等级: 无高风险
轨道信息
数据来源 国际轨道数据
星历时间: 2026-07-02T06:03:41+0800
轨道信息已过期72天
半长轴: 6530.277km
偏心率: 0.0009035
轨道倾角: 53.197°
近地点辐角 244.394°
升交点赤经 123.739°
平近点角 115.618°
近地点: 146.239km
远地点: 158.041km
周期: 87.530分钟
每日圈数: 16.451496
详细信息
固有亮度:
5
最大亮度:
2.5
卫星平台:
Starlink v1.5
覆盖范围:
全球
运营商:
太空探索技术公司
运营商所在国:
美国
制造商(研发单位):
太空探索技术公司
制造商所在国:
美国
使用方式:
暂无
卫星简介
星链(Starlink)计划是由太空探索技术公司(SpaceX)提出的一个巨型低轨卫星互联网星座项目,计划在2019年至2024年间在太空搭建由约1.2万颗卫星组成的“星链”网络,其中1584颗将部署在地球上空550千米处的近地轨道,并从2020年开始工作。该卫星仍在工作。
与全量物体交会距离演化趋势
与全量物体交会风险概率演化趋势